QPF
0.02 0.03 0.02 0.03 0.03 0.03 0.04 0.05 0.04 0.04 0.05 0.06 0.05 0.05 0.04 0.05 0.05 0.06 0.06 0.06 0.06 0.05 0.06 0.06 0.06 0.07 0.08 0.07 0.06 0.06 0.04 0.02 0.02 0.01 0.01 0.01 0.02 0.02 0.02 0.02 0.03 0.05 0.04
0.02 0.03 0.02 0.02 0.03 0.03 0.05 0.05 0.05 0.03 0.03 0.04 0.04 0.05 0.05 0.06 0.07 0.08 0.07 0.06 0.06 0.06 0.06 0.06 0.06 0.06 0.05 0.04 0.04 0.04 0.03 0.03 0.02 0.01 0.01 0.01 0.02 0.03 0.02 0.02 0.03 0.05 0.05
0.01 0.02 0.01 0.02 0.03 0.02 0.04 0.05 0.05 0.05 0.04 0.04 0.04 0.05 0.05 0.06 0.06 0.07 0.06 0.05 0.05 0.04 0.05 0.06 0.06 0.05 0.04 0.03 0.03 0.03 0.02 0.02 0.02 0.01 0.01 0.01 0.02 0.02 0.03 0.02 0.02 0.05 0.05
0.01 0.02 0.01 0.02 0.03 0.02 0.02 0.03 0.03 0.04 0.04 0.06 0.06 0.07 0.08 0.08 0.08 0.09 0.06 0.06 0.05 0.03 0.04 0.05 0.05 0.04 0.03 0.03 0.03 0.02 0.02 0.02 0.02 0.02 0.04 0.03 0.02 0.03 0.02 0.02 0.02 0.03 0.04
0.01 0.02 0.02 0.03 0.04 0.03 0.03 0.03 0.02 0.02 0.02 0.03 0.05 0.07 0.10 0.11 0.10 0.07 0.05 0.05 0.04 0.03 0.03 0.04 0.04 0.04 0.03 0.03 0.03 0.02 0.02 0.02 0.01 0.02 0.05 0.06 0.05 0.04 0.03 0.03 0.03 0.03 0.03
0.02 0.02 0.03 0.02 0.03 0.04 0.03 0.03 0.02 0.02 0.02 0.02 0.03 0.05 0.06 0.08 0.08 0.06 0.04 0.04 0.04 0.03 0.05 0.05 0.05 0.04 0.04 0.02 0.02 0.02 0.02 0.02 0.02 0.04 0.05 0.06 0.05 0.06 0.04 0.03 0.03 0.02 0.03
0.02 0.03 0.04 0.03 0.02 0.03 0.03 0.03 0.02 0.01 0.01 0.02 0.03 0.04 0.04 0.05 0.04 0.04 0.04 0.04 0.05 0.04 0.04 0.06 0.06 0.05 0.04 0.03 0.02 0.02 0.02 0.02 0.03 0.05 0.06 0.06 0.05 0.07 0.05 0.04 0.03 0.02 0.03
0.02 0.03 0.04 0.04 0.02 0.02 0.02 0.02 0.02 0.01 0.01 0.01 0.02 0.03 0.03 0.04 0.03 0.02 0.02 0.03 0.04 0.04 0.03 0.04 0.05 0.07 0.04 0.03 0.03 0.02 0.01 0.01 0.02 0.04 0.05 0.05 0.04 0.05 0.05 0.04 0.03 0.03 0.03
0.01 0.02 0.04 0.04 0.03 0.03 0.03 0.03 0.02 0.02 0.02 0.01 0.02 0.02 0.02 0.02 0.03 0.02 0.02 0.02 0.02 0.03 0.02 0.02 0.03 0.05 0.04 0.02 0.02 0.02 0.01 0.01 0.01 0.02 0.03 0.04 0.03 0.04 0.04 0.04 0.04 0.03 0.03
0.01 0.01 0.03 0.05 0.04 0.04 0.03 0.02 0.02 0.03 0.03 0.02 0.02 0.01 0.01 0.02 0.02 0.02 0.02 0.02 0.02 0.02 0.02 0.01 0.03 0.04 0.05 0.03 0.02 0.01 0.01 0.01 0.01 0.01 0.02 0.02 0.03 0.04 0.03 0.03 0.04 0.04 0.04
0.01 0.01 0.02 0.04 0.05 0.05 0.04 0.02 0.03 0.03 0.03 0.03 0.02 0.01 0.02 0.02 0.03 0.03 0.03 0.03 0.02 0.02 0.02 0.02 0.02 0.04 0.05 0.05 0.03 0.02 0.01 0.01 0.01 0.01 0.01 0.02 0.03 0.03 0.03 0.02 0.03 0.04 0.04
0.00 0.01 0.01 0.02 0.04 0.05 0.05 0.05 0.05 0.04 0.03 0.03 0.02 0.01 0.02 0.03 0.04 0.03 0.04 0.05 0.04 0.03 0.02 0.02 0.02 0.03 0.04 0.05 0.04 0.02 0.01 0.01 0.02 0.02 0.02 0.02 0.03 0.03 0.03 0.03 0.03 0.04 0.03
0.00 0.01 0.01 0.01 0.02 0.04 0.05 0.06 0.06 0.04 0.04 0.04 0.03 0.02 0.02 0.03 0.04 0.06 0.06 0.08 0.07 0.04 0.02 0.02 0.03 0.03 0.04 0.04 0.03 0.02 0.01 0.01 0.02 0.03 0.03 0.03 0.03 0.03 0.02 0.03 0.05 0.04 0.04
0.00 0.01 0.01 0.01 0.01 0.02 0.02 0.04 0.04 0.04 0.03 0.04 0.04 0.03 0.02 0.03 0.03 0.06 0.09 0.10 0.09 0.08 0.04 0.02 0.02 0.03 0.04 0.04 0.03 0.02 0.01 0.02 0.02 0.02 0.02 0.03 0.04 0.04 0.03 0.03 0.05 0.05 0.05
0.01 0.01 0.01 0.02 0.02 0.01 0.01 0.03 0.04 0.04 0.04 0.05 0.04 0.04 0.05 0.05 0.05 0.05 0.08 0.11 0.10 0.11 0.08 0.04 0.04 0.05 0.05 0.05 0.03 0.03 0.02 0.02 0.02 0.02 0.01 0.02 0.03 0.04 0.04 0.04 0.05 0.06 0.06
0.01 0.01 0.01 0.01 0.02 0.02 0.01 0.02 0.03 0.04 0.04 0.04 0.05 0.04 0.07 0.10 0.10 0.11 0.12 0.13 0.11 0.10 0.09 0.07 0.06 0.07 0.08 0.06 0.04 0.03 0.03 0.02 0.02 0.02 0.02 0.01 0.02 0.02 0.04 0.06 0.06 0.06 0.08
0.02 0.02 0.01 0.01 0.01 0.01 0.01 0.01 0.02 0.03 0.03 0.03 0.04 0.05 0.06 0.09 0.10 0.11 0.13 0.14 0.11 0.09 0.08 0.07 0.06 0.07 0.10 0.11 0.07 0.05 0.04 0.03 0.02 0.02 0.02 0.02 0.01 0.02 0.04 0.06 0.06 0.06 0.09
0.01 0.01 0.01 0.01 0.01 0.00 0.00 0.01 0.01 0.02 0.02 0.01 0.01 0.03 0.04 0.05 0.07 0.09 0.08 0.08 0.07 0.07 0.07 0.06 0.04 0.04 0.06 0.10 0.11 0.08 0.05 0.04 0.03 0.03 0.02 0.02 0.02 0.03 0.05 0.08 0.10 0.09 0.09
0.01 0.01 0.00 0.00 0.01 0.01 0.01 0.01 0.01 0.01 0.02 0.01 0.01 0.01 0.02 0.04 0.04 0.06 0.07 0.08 0.07 0.06 0.06 0.05 0.03 0.02 0.03 0.05 0.09 0.10 0.08 0.05 0.04 0.04 0.03 0.03 0.02 0.02 0.03 0.05 0.06 0.07 0.08
0.02 0.01 0.00 0.00 0.00 0.00 0.01 0.01 0.01 0.02 0.02 0.01 0.01 0.01 0.02 0.03 0.03 0.04 0.04 0.05 0.06 0.06 0.05 0.05 0.03 0.03 0.03 0.04 0.06 0.09 0.08 0.06 0.04 0.04 0.03 0.03 0.03 0.02 0.02 0.03 0.04 0.03 0.04
0.01 0.01 0.01 0.01 0.00 0.00 0.00 0.01 0.01 0.02 0.02 0.02 0.01 0.01 0.03 0.04 0.04 0.04 0.04 0.04 0.05 0.06 0.06 0.07 0.06 0.04 0.05 0.06 0.07 0.07 0.07 0.06 0.04 0.04 0.04 0.04 0.03 0.02 0.02 0.02 0.03 0.04 0.03
0.01 0.01 0.01 0.00 0.00 0.00 0.00 0.00 0.01 0.01 0.02 0.02 0.01 0.01 0.01 0.02 0.03 0.04 0.05 0.05 0.06 0.06 0.07 0.08 0.08 0.07 0.06 0.07 0.08 0.08 0.08 0.07 0.06 0.05 0.05 0.05 0.04 0.03 0.02 0.02 0.02 0.02 0.02
0.00 0.00 0.00 0.00 0.00 0.00 0.00 0.00 0.01 0.01 0.02 0.03 0.02 0.01 0.01 0.02 0.02 0.02 0.02 0.03 0.04 0.05 0.06 0.07 0.07 0.08 0.08 0.08 0.07 0.08 0.08 0.07 0.06 0.05 0.05 0.05 0.05 0.04 0.03 0.02 0.02 0.01 0.01
0.00 0.00 0.00 0.00 0.00 0.00 0.00 0.00 0.01 0.02 0.02 0.03 0.02 0.01 0.01 0.02 0.03 0.04 0.03 0.02 0.02 0.04 0.05 0.06 0.06 0.06 0.07 0.08 0.08 0.07 0.08 0.06 0.05 0.05 0.05 0.05 0.05 0.05 0.04 0.03 0.03 0.02 0.02
0.00 0.00 0.00 0.00 0.00 0.00 0.00 0.00 0.01 0.02 0.02 0.02 0.03 0.02 0.01 0.01 0.02 0.03 0.04 0.04 0.03 0.03 0.04 0.05 0.04 0.04 0.05 0.06 0.07 0.07 0.07 0.07 0.06 0.05 0.05 0.05 0.05 0.05 0.05 0.03 0.03 0.02 0.02
0.01 0.00 0.00 0.00 0.00 0.00 0.00 0.00 0.00 0.01 0.01 0.01 0.02 0.01 0.01 0.01 0.01 0.01 0.02 0.03 0.03 0.02 0.02 0.04 0.05 0.04 0.04 0.04 0.05 0.05 0.05 0.08 0.08 0.08 0.06 0.05 0.06 0.06 0.05 0.03 0.02 0.02 0.03
MSLP
1017.36 1017.32 1017.29 1017.31 1017.33 1017.35 1017.33 1017.23 1017.02 1016.71 1016.32 1015.88 1015.45 1015.06 1014.75 1014.52 1014.37 1014.27 1014.20 1014.13 1014.06 1014.00 1013.96 1013.95 1013.99 1014.07 1014.18 1014.28 1014.34 1014.35 1014.28 1014.14 1013.97 1013.80 1013.65 1013.56 1013.54 1013.57 1013.65 1013.73 1013.81 1013.88 1013.92
1017.43 1017.38 1017.37 1017.41 1017.48 1017.54 1017.54 1017.45 1017.25 1016.94 1016.53 1016.09 1015.66 1015.28 1014.98 1014.77 1014.62 1014.52 1014.42 1014.31 1014.19 1014.07 1013.97 1013.92 1013.93 1014.00 1014.11 1014.23 1014.31 1014.33 1014.27 1014.15 1013.98 1013.80 1013.65 1013.55 1013.53 1013.56 1013.64 1013.73 1013.83 1013.91 1013.97
1017.52 1017.48 1017.48 1017.54 1017.64 1017.73 1017.76 1017.70 1017.52 1017.22 1016.84 1016.41 1016.01 1015.65 1015.38 1015.18 1015.04 1014.91 1014.77 1014.60 1014.40 1014.20 1014.02 1013.90 1013.86 1013.90 1014.00 1014.11 1014.21 1014.25 1014.21 1014.11 1013.95 1013.78 1013.63 1013.53 1013.50 1013.52 1013.59 1013.68 1013.77 1013.86 1013.93
1017.60 1017.57 1017.60 1017.68 1017.80 1017.92 1017.99 1017.96 1017.81 1017.54 1017.19 1016.81 1016.44 1016.12 1015.87 1015.69 1015.53 1015.37 1015.18 1014.93 1014.65 1014.36 1014.10 1013.90 1013.80 1013.80 1013.87 1013.98 1014.08 1014.13 1014.12 1014.04 1013.91 1013.76 1013.62 1013.52 1013.47 1013.48 1013.52 1013.59 1013.67 1013.75 1013.83
1017.68 1017.66 1017.70 1017.81 1017.96 1018.10 1018.20 1018.20 1018.08 1017.86 1017.55 1017.20 1016.87 1016.58 1016.36 1016.17 1016.01 1015.81 1015.57 1015.26 1014.91 1014.54 1014.21 1013.95 1013.79 1013.74 1013.77 1013.86 1013.96 1014.02 1014.03 1013.97 1013.87 1013.74 1013.62 1013.52 1013.45 1013.43 1013.45 1013.48 1013.53 1013.60 1013.67
1017.74 1017.73 1017.79 1017.91 1018.08 1018.25 1018.37 1018.39 1018.31 1018.11 1017.83 1017.52 1017.22 1016.96 1016.74 1016.56 1016.38 1016.16 1015.88 1015.53 1015.13 1014.72 1014.34 1014.03 1013.83 1013.73 1013.73 1013.79 1013.87 1013.92 1013.93 1013.90 1013.81 1013.71 1013.59 1013.50 1013.43 1013.39 1013.37 1013.38 1013.40 1013.44 1013.50
1017.81 1017.80 1017.85 1017.97 1018.15 1018.33 1018.47 1018.51 1018.44 1018.27 1018.02 1017.73 1017.45 1017.20 1016.99 1016.80 1016.60 1016.37 1016.07 1015.71 1015.29 1014.87 1014.47 1014.15 1013.91 1013.79 1013.74 1013.76 1013.80 1013.82 1013.82 1013.78 1013.71 1013.62 1013.53 1013.44 1013.37 1013.33 1013.29 1013.27 1013.27 1013.28 1013.33
1017.93 1017.88 1017.91 1018.03 1018.20 1018.37 1018.50 1018.55 1018.49 1018.33 1018.09 1017.82 1017.55 1017.30 1017.09 1016.90 1016.69 1016.45 1016.15 1015.79 1015.39 1014.98 1014.59 1014.27 1014.02 1013.86 1013.77 1013.73 1013.72 1013.69 1013.66 1013.60 1013.52 1013.44 1013.37 1013.31 1013.26 1013.22 1013.19 1013.16 1013.14 1013.15 1013.17
1018.15 1018.04 1018.03 1018.11 1018.25 1018.40 1018.52 1018.55 1018.48 1018.32 1018.10 1017.84 1017.58 1017.34 1017.13 1016.93 1016.71 1016.47 1016.17 1015.82 1015.44 1015.06 1014.69 1014.37 1014.12 1013.93 1013.79 1013.68 1013.59 1013.50 1013.41 1013.31 1013.23 1013.15 1013.10 1013.07 1013.05 1013.05 1013.04 1013.03 1013.02 1013.02 1013.04
1018.50 1018.33 1018.27 1018.30 1018.39 1018.49 1018.56 1018.57 1018.49 1018.33 1018.11 1017.87 1017.63 1017.41 1017.20 1016.99 1016.77 1016.51 1016.21 1015.87 1015.50 1015.12 1014.77 1014.45 1014.18 1013.95 1013.75 1013.57 1013.40 1013.24 1013.08 1012.94 1012.84 1012.77 1012.74 1012.74 1012.77 1012.81 1012.85 1012.87 1012.89 1012.90 1012.92
1019.04 1018.81 1018.68 1018.65 1018.67 1018.71 1018.72 1018.68 1018.58 1018.41 1018.22 1018.01 1017.80 1017.60 1017.40 1017.20 1016.96 1016.68 1016.36 1015.99 1015.61 1015.22 1014.85 1014.51 1014.21 1013.93 1013.67 1013.41 1013.16 1012.92 1012.70 1012.52 1012.39 1012.32 1012.32 1012.36 1012.44 1012.53 1012.62 1012.70 1012.75 1012.79 1012.81
1019.76 1019.48 1019.30 1019.20 1019.15 1019.11 1019.05 1018.95 1018.81 1018.65 1018.48 1018.30 1018.14 1017.98 1017.81 1017.60 1017.35 1017.03 1016.66 1016.25 1015.81 1015.38 1014.96 1014.58 1014.22 1013.88 1013.55 1013.23 1012.91 1012.61 1012.33 1012.11 1011.97 1011.90 1011.91 1011.99 1012.11 1012.25 1012.38 1012.50 1012.60 1012.66 1012.71
1020.62 1020.34 1020.13 1019.97 1019.84 1019.71 1019.56 1019.40 1019.22 1019.06 1018.91 1018.78 1018.68 1018.56 1018.42 1018.22 1017.95 1017.59 1017.16 1016.67 1016.15 1015.64 1015.14 1014.69 1014.26 1013.85 1013.46 1013.08 1012.70 1012.35 1012.04 1011.80 1011.63 1011.56 1011.58 1011.68 1011.83 1012.00 1012.17 1012.32 1012.44 1012.53 1012.60
1021.59 1021.34 1021.12 1020.92 1020.71 1020.49 1020.25 1020.02 1019.80 1019.62 1019.50 1019.42 1019.37 1019.32 1019.21 1019.02 1018.73 1018.33 1017.82 1017.24 1016.63 1016.01 1015.42 1014.87 1014.37 1013.89 1013.44 1013.01 1012.59 1012.21 1011.88 1011.62 1011.45 1011.38 1011.40 1011.49 1011.64 1011.81 1011.99 1012.16 1012.29 1012.40 1012.48
1022.58 1022.39 1022.19 1021.96 1021.69 1021.38 1021.06 1020.76 1020.49 1020.30 1020.20 1020.16 1020.16 1020.16 1020.09 1019.92 1019.61 1019.17 1018.60 1017.93 1017.22 1016.50 1015.81 1015.17 1014.58 1014.04 1013.53 1013.06 1012.62 1012.22 1011.88 1011.61 1011.43 1011.35 1011.36 1011.44 1011.57 1011.73 1011.89 1012.04 1012.17 1012.28 1012.37
1023.50 1023.40 1023.23 1023.00 1022.69 1022.32 1021.93 1021.56 1021.25 1021.04 1020.94 1020.93 1020.97 1021.00 1020.97 1020.81 1020.51 1020.03 1019.41 1018.68 1017.89 1017.09 1016.31 1015.59 1014.92 1014.31 1013.75 1013.24 1012.78 1012.36 1012.02 1011.75 1011.56 1011.47 1011.46 1011.52 1011.62 1011.74 1011.86 1011.98 1012.09 1012.20 1012.29
1024.31 1024.29 1024.17 1023.95 1023.62 1023.21 1022.77 1022.36 1022.01 1021.78 1021.68 1021.67 1021.73 1021.78 1021.77 1021.63 1021.32 1020.84 1020.20 1019.44 1018.60 1017.74 1016.90 1016.10 1015.37 1014.70 1014.09 1013.54 1013.04 1012.61 1012.25 1011.97 1011.78 1011.68 1011.65 1011.68 1011.75 1011.83 1011.92 1012.01 1012.09 1012.18 1012.28
1024.96 1025.02 1024.95 1024.75 1024.43 1024.01 1023.56 1023.12 1022.76 1022.51 1022.39 1022.38 1022.43 1022.48 1022.46 1022.32 1022.03 1021.55 1020.92 1020.15 1019.31 1018.43 1017.55 1016.71 1015.92 1015.19 1014.52 1013.91 1013.37 1012.91 1012.52 1012.23 1012.03 1011.92 1011.88 1011.89 1011.94 1012.00 1012.07 1012.14 1012.21 1012.29 1012.38
1025.47 1025.58 1025.56 1025.39 1025.10 1024.71 1024.28 1023.86 1023.50 1023.25 1023.11 1023.07 1023.08 1023.10 1023.06 1022.91 1022.61 1022.15 1021.54 1020.81 1019.99 1019.12 1018.24 1017.37 1016.54 1015.75 1015.01 1014.34 1013.74 1013.22 1012.80 1012.48 1012.26 1012.15 1012.11 1012.13 1012.19 1012.25 1012.33 1012.40 1012.47 1012.55 1012.66
1025.87 1026.00 1026.01 1025.89 1025.65 1025.32 1024.94 1024.57 1024.25 1024.01 1023.85 1023.77 1023.73 1023.69 1023.60 1023.41 1023.11 1022.67 1022.09 1021.41 1020.63 1019.81 1018.94 1018.07 1017.21 1016.37 1015.56 1014.81 1014.13 1013.55 1013.07 1012.72 1012.49 1012.38 1012.36 1012.41 1012.50 1012.61 1012.71 1012.81 1012.91 1013.02 1013.14
1026.20 1026.33 1026.36 1026.29 1026.12 1025.87 1025.59 1025.31 1025.04 1024.83 1024.66 1024.53 1024.42 1024.30 1024.13 1023.89 1023.56 1023.13 1022.59 1021.96 1021.25 1020.48 1019.66 1018.80 1017.92 1017.04 1016.17 1015.34 1014.58 1013.92 1013.39 1013.00 1012.75 1012.65 1012.66 1012.75 1012.90 1013.07 1013.25 1013.41 1013.56 1013.70 1013.84
1026.53 1026.64 1026.68 1026.65 1026.55 1026.42 1026.25 1026.06 1025.88 1025.70 1025.53 1025.35 1025.17 1024.95 1024.69 1024.38 1024.01 1023.56 1023.05 1022.48 1021.84 1021.14 1020.37 1019.55 1018.67 1017.76 1016.84 1015.95 1015.12 1014.39 1013.81 1013.37 1013.11 1013.02 1013.06 1013.21 1013.43 1013.68 1013.93 1014.17 1014.38 1014.57 1014.74
1026.90 1026.98 1027.02 1027.02 1027.01 1026.97 1026.91 1026.84 1026.73 1026.60 1026.42 1026.20 1025.94 1025.63 1025.27 1024.88 1024.45 1023.99 1023.50 1022.97 1022.39 1021.76 1021.06 1020.29 1019.44 1018.53 1017.59 1016.66 1015.79 1015.01 1014.38 1013.92 1013.65 1013.56 1013.63 1013.82 1014.10 1014.42 1014.76 1015.07 1015.34 1015.58 1015.77
1027.33 1027.39 1027.41 1027.44 1027.48 1027.53 1027.57 1027.58 1027.55 1027.46 1027.28 1027.02 1026.68 1026.28 1025.83 1025.35 1024.87 1024.38 1023.90 1023.41 1022.90 1022.34 1021.71 1021.00 1020.20 1019.33 1018.41 1017.49 1016.60 1015.81 1015.15 1014.67 1014.38 1014.29 1014.37 1014.59 1014.90 1015.27 1015.66 1016.03 1016.36 1016.63 1016.85
1027.84 1027.86 1027.87 1027.91 1027.97 1028.07 1028.17 1028.25 1028.26 1028.19 1028.01 1027.72 1027.32 1026.84 1026.31 1025.77 1025.24 1024.73 1024.25 1023.79 1023.33 1022.83 1022.28 1021.65 1020.93 1020.13 1019.26 1018.38 1017.53 1016.75 1016.10 1015.61 1015.30 1015.19 1015.25 1015.46 1015.78 1016.16 1016.57 1016.97 1017.32 1017.63 1017.87
1028.40 1028.39 1028.37 1028.39 1028.45 1028.56 1028.68 1028.77 1028.80 1028.73 1028.54 1028.21 1027.77 1027.25 1026.67 1026.08 1025.51 1024.99 1024.51 1024.08 1023.66 1023.23 1022.75 1022.20 1021.57 1020.86 1020.09 1019.29 1018.50 1017.77 1017.15 1016.67 1016.35 1016.20 1016.22 1016.39 1016.66 1017.01 1017.40 1017.80 1018.16 1018.48 1018.74
Thickness
5665 5666 5668 5670 5673 5675 5676 5677 5679 5680 5681 5682 5683 5684 5685 5686 5687 5689 5690 5692 5693 5695 5696 5697 5698 5699 5699 5700 5700 5701 5701 5703 5704 5705 5705 5706 5707 5708 5708 5709 5710 5710 5710
5661 5662 5664 5666 5668 5670 5671 5672 5673 5675 5676 5677 5678 5679 5680 5681 5682 5684 5685 5686 5688 5690 5691 5692 5693 5694 5695 5695 5696 5697 5697 5698 5699 5701 5702 5703 5703 5704 5705 5705 5706 5706 5707
5658 5658 5659 5661 5663 5664 5666 5667 5668 5669 5670 5671 5673 5674 5675 5676 5677 5678 5680 5681 5683 5684 5686 5687 5688 5689 5690 5690 5691 5692 5693 5694 5696 5697 5698 5699 5700 5700 5701 5702 5702 5703 5703
5653 5653 5654 5655 5657 5658 5659 5661 5662 5663 5664 5665 5667 5668 5669 5670 5671 5673 5674 5675 5677 5678 5679 5681 5682 5683 5684 5685 5686 5688 5689 5690 5691 5693 5694 5695 5696 5696 5697 5697 5698 5699 5699
5648 5648 5648 5649 5650 5651 5653 5654 5655 5656 5658 5659 5660 5661 5663 5664 5665 5666 5667 5669 5670 5672 5673 5675 5676 5677 5678 5679 5681 5682 5684 5685 5687 5688 5690 5691 5691 5692 5692 5693 5694 5694 5695
5642 5642 5642 5643 5644 5645 5646 5647 5648 5649 5650 5652 5653 5654 5656 5657 5658 5659 5661 5662 5663 5665 5667 5668 5670 5671 5672 5673 5675 5676 5678 5680 5682 5683 5684 5686 5686 5687 5688 5688 5689 5690 5691
5635 5635 5635 5636 5636 5637 5638 5639 5640 5641 5643 5644 5646 5647 5648 5650 5651 5652 5653 5655 5656 5658 5660 5661 5663 5664 5665 5667 5669 5670 5672 5674 5676 5678 5678 5680 5681 5682 5683 5683 5684 5685 5686
5627 5627 5627 5628 5628 5629 5630 5631 5632 5633 5634 5636 5637 5639 5640 5642 5643 5645 5646 5647 5649 5651 5652 5654 5656 5657 5659 5660 5662 5664 5666 5668 5670 5672 5673 5673 5675 5676 5677 5678 5678 5680 5681
5620 5619 5619 5619 5620 5620 5621 5622 5623 5624 5625 5627 5629 5630 5632 5634 5635 5636 5637 5639 5641 5643 5644 5646 5648 5650 5652 5653 5655 5657 5659 5661 5663 5665 5667 5668 5669 5670 5672 5672 5673 5674 5675
5612 5611 5611 5611 5612 5612 5613 5614 5615 5616 5617 5618 5620 5621 5623 5625 5626 5628 5629 5631 5633 5635 5637 5638 5641 5643 5645 5647 5648 5650 5652 5655 5657 5658 5660 5661 5663 5664 5665 5666 5667 5668 5670
5604 5603 5602 5603 5603 5604 5605 5606 5606 5607 5607 5609 5610 5612 5613 5615 5616 5618 5620 5622 5624 5626 5628 5630 5633 5635 5637 5639 5641 5643 5645 5647 5649 5651 5653 5654 5656 5658 5659 5660 5661 5662 5664
5594 5593 5593 5594 5595 5596 5597 5597 5598 5598 5598 5599 5600 5602 5603 5605 5606 5608 5610 5612 5614 5616 5618 5621 5624 5626 5628 5631 5633 5635 5637 5639 5642 5644 5645 5647 5649 5650 5652 5653 5654 5656 5657
5585 5585 5584 5584 5585 5587 5587 5588 5589 5589 5589 5590 5591 5592 5593 5595 5596 5598 5600 5602 5604 5606 5608 5611 5614 5616 5619 5621 5624 5626 5629 5631 5634 5636 5637 5639 5641 5643 5644 5646 5647 5649 5650
5577 5576 5575 5576 5576 5576 5577 5578 5579 5579 5580 5580 5581 5582 5583 5584 5585 5587 5589 5590 5592 5594 5597 5600 5602 5605 5609 5611 5614 5617 5619 5622 5625 5627 5629 5631 5633 5635 5636 5638 5640 5641 5643
5569 5567 5566 5566 5566 5567 5567 5568 5568 5569 5570 5570 5570 5571 5572 5573 5574 5575 5577 5578 5580 5582 5585 5588 5591 5594 5597 5600 5603 5606 5609 5612 5615 5618 5620 5622 5624 5626 5628 5630 5632 5634 5636
5561 5558 5557 5557 5557 5557 5557 5557 5557 5558 5559 5559 5559 5559 5560 5561 5562 5563 5564 5567 5569 5570 5573 5576 5579 5582 5585 5588 5591 5595 5598 5602 5605 5608 5610 5613 5615 5617 5619 5622 5624 5626 5628
5552 5550 5548 5548 5547 5547 5547 5547 5546 5547 5547 5548 5547 5548 5548 5549 5550 5551 5553 5555 5557 5559 5561 5564 5566 5570 5573 5576 5579 5583 5587 5591 5594 5597 5600 5603 5605 5607 5610 5612 5615 5617 5619
5543 5540 5538 5538 5537 5537 5536 5536 5535 5535 5536 5536 5536 5536 5535 5536 5537 5539 5540 5542 5544 5546 5548 5551 5554 5557 5560 5563 5566 5570 5575 5579 5583 5586 5589 5592 5595 5597 5599 5602 5605 5607 5610
5533 5530 5528 5527 5527 5526 5525 5524 5524 5523 5523 5524 5523 5523 5523 5523 5524 5526 5527 5529 5531 5533 5535 5537 5539 5542 5546 5549 5553 5557 5562 5566 5570 5574 5578 5581 5584 5586 5589 5591 5594 5596 5599
5523 5520 5518 5517 5516 5515 5514 5513 5512 5511 5511 5510 5510 5510 5509 5510 5510 5512 5513 5514 5516 5518 5520 5522 5525 5528 5531 5534 5539 5543 5548 5553 5558 5562 5565 5568 5572 5574 5577 5580 5582 5584 5587
5512 5510 5508 5506 5505 5503 5502 5500 5499 5498 5497 5497 5496 5496 5495 5496 5496 5497 5498 5499 5501 5503 5505 5507 5510 5512 5515 5519 5522 5527 5535 5541 5545 5549 5552 5555 5558 5561 5564 5567 5570 5573 5576
5502 5500 5497 5495 5493 5491 5489 5488 5486 5485 5484 5482 5482 5481 5481 5481 5481 5482 5483 5483 5485 5487 5488 5490 5492 5495 5498 5500 5502 5507 5515 5523 5529 5534 5537 5540 5543 5547 5550 5553 5557 5560 5563
5492 5488 5487 5484 5482 5479 5477 5475 5474 5472 5470 5468 5467 5466 5466 5466 5466 5466 5467 5468 5468 5470 5471 5473 5475 5478 5480 5483 5485 5487 5492 5500 5505 5515 5520 5524 5527 5531 5535 5539 5543 5546 5550
5482 5478 5475 5472 5470 5467 5465 5462 5460 5457 5454 5453 5452 5451 5451 5451 5451 5451 5451 5451 5452 5453 5455 5457 5459 5460 5463 5466 5469 5472 5475 5479 5484 5493 5502 5506 5509 5514 5518 5524 5528 5531 5536
5473 5468 5464 5461 5458 5455 5452 5449 5446 5443 5441 5439 5438 5436 5436 5436 5436 5435 5436 5435 5436 5437 5439 5441 5442 5444 5446 5449 5452 5456 5459 5464 5468 5473 5482 5488 5492 5497 5501 5506 5512 5516 5521
5462 5457 5453 5450 5446 5443 5440 5436 5433 5430 5427 5424 5422 5421 5420 5420 5420 5419 5420 5419 5420 5422 5423 5424 5426 5428 5430 5433 5436 5439 5443 5447 5451 5455 5462 5469 5475 5481 5485 5491 5496 5501 5506